TimeCDT,TemperatureF,Dew PointF,Humidity,Sea Level PressureIn,VisibilityMPH,Wind Direction,Wind SpeedMPH,Gust SpeedMPH,PrecipitationIn,Events,Conditions,WindDirDegrees,DateUTC
12:15 AM,46.4,41.0,81,30.08,10.0,SSW,3.5,-,N/A,,Clear,200,2013-10-20 05:15:00
12:35 AM,48.2,42.8,82,30.08,10.0,South,3.5,-,N/A,,Clear,180,2013-10-20 05:35:00
12:55 AM,46.4,41.0,81,30.08,10.0,Calm,Calm,-,N/A,,Clear,0,2013-10-20 05:55:00
1:15 AM,44.6,41.0,87,30.08,10.0,West,3.5,-,N/A,,Clear,270,2013-10-20 06:15:00
1:35 AM,44.6,39.2,81,30.08,10.0,West,3.5,-,N/A,,Clear,280,2013-10-20 06:35:00
1:55 AM,46.4,42.8,87,30.08,10.0,Calm,Calm,-,N/A,,Clear,0,2013-10-20 06:55:00
2:15 AM,46.4,41.0,81,30.08,10.0,Calm,Calm,-,N/A,,Clear,0,2013-10-20 07:15:00
2:35 AM,46.4,41.0,81,30.08,10.0,Calm,Calm,-,N/A,,Clear,0,2013-10-20 07:35:00
2:55 AM,46.4,41.0,81,30.08,10.0,SSE,4.6,-,N/A,,Clear,150,2013-10-20 07:55:00
3:15 AM,44.6,39.2,81,30.08,10.0,SSE,6.9,-,N/A,,Clear,160,2013-10-20 08:15:00
3:35 AM,44.6,39.2,81,30.07,10.0,SSE,4.6,-,N/A,,Clear,150,2013-10-20 08:35:00
3:55 AM,46.4,39.2,76,30.07,10.0,Calm,Calm,-,N/A,,Clear,0,2013-10-20 08:55:00
4:15 AM,44.6,39.2,81,30.07,10.0,SSW,3.5,-,N/A,,Clear,200,2013-10-20 09:15:00
4:35 AM,44.6,39.2,81,30.07,10.0,South,4.6,-,N/A,,Clear,190,2013-10-20 09:35:00
4:55 AM,44.6,39.2,81,30.08,10.0,South,3.5,-,N/A,,Clear,190,2013-10-20 09:55:00
5:15 AM,44.6,39.2,81,30.08,10.0,SSE,3.5,-,N/A,,Clear,160,2013-10-20 10:15:00
5:35 AM,44.6,39.2,81,30.08,10.0,South,4.6,-,N/A,,Clear,190,2013-10-20 10:35:00
5:55 AM,44.6,39.2,81,30.09,10.0,South,3.5,-,N/A,,Clear,180,2013-10-20 10:55:00
6:15 AM,44.6,39.2,81,30.09,10.0,SSE,4.6,-,N/A,,Clear,150,2013-10-20 11:15:00
6:35 AM,44.6,39.2,81,30.10,10.0,SE,4.6,-,N/A,,Clear,130,2013-10-20 11:35:00
6:55 AM,42.8,39.2,87,30.09,10.0,SSE,4.6,-,N/A,,Clear,160,2013-10-20 11:55:00
7:15 AM,42.8,39.2,87,30.10,10.0,SSE,5.8,-,N/A,,Clear,160,2013-10-20 12:15:00
7:35 AM,44.6,39.2,81,30.10,10.0,SSE,5.8,-,N/A,,Clear,160,2013-10-20 12:35:00
7:55 AM,46.4,39.2,76,30.10,10.0,South,5.8,-,N/A,,Clear,170,2013-10-20 12:55:00
8:15 AM,48.2,41.0,76,30.11,10.0,South,8.1,-,N/A,,Clear,180,2013-10-20 13:15:00
8:35 AM,48.2,42.8,82,30.12,10.0,South,9.2,-,N/A,,Clear,180,2013-10-20 13:35:00
8:55 AM,51.8,42.8,71,30.13,10.0,SSW,8.1,-,N/A,,Clear,200,2013-10-20 13:55:00
9:15 AM,53.6,44.6,72,30.13,10.0,South,10.4,-,N/A,,Clear,190,2013-10-20 14:15:00
9:35 AM,53.6,44.6,72,30.13,10.0,SSW,9.2,-,N/A,,Clear,200,2013-10-20 14:35:00
9:55 AM,55.4,44.6,67,30.13,10.0,SSW,9.2,-,N/A,,Clear,210,2013-10-20 14:55:00
10:15 AM,57.2,44.6,63,30.13,10.0,South,11.5,-,N/A,,Clear,190,2013-10-20 15:15:00
10:35 AM,59.0,44.6,59,30.13,10.0,SW,11.5,16.1,N/A,,Clear,220,2013-10-20 15:35:00
10:55 AM,60.8,42.8,52,30.13,10.0,SSW,12.7,-,N/A,,Clear,200,2013-10-20 15:55:00
11:15 AM,60.8,42.8,52,30.13,10.0,SW,11.5,-,N/A,,Clear,220,2013-10-20 16:15:00
11:35 AM,62.6,42.8,48,30.12,10.0,SSW,11.5,-,N/A,,Clear,200,2013-10-20 16:35:00
11:55 AM,62.6,42.8,48,30.12,10.0,SSW,10.4,-,N/A,,Clear,200,2013-10-20 16:55:00
12:15 PM,64.4,42.8,45,30.11,10.0,SSW,11.5,-,N/A,,Clear,200,2013-10-20 17:15:00
12:35 PM,64.4,42.8,45,30.10,10.0,South,8.1,-,N/A,,Clear,190,2013-10-20 17:35:00
12:55 PM,64.4,41.0,42,30.09,10.0,SSW,6.9,-,N/A,,Clear,200,2013-10-20 17:55:00
1:15 PM,64.4,42.8,45,30.08,10.0,South,5.8,-,N/A,,Clear,180,2013-10-20 18:15:00
1:35 PM,66.2,42.8,43,30.07,10.0,SSE,8.1,-,N/A,,Clear,160,2013-10-20 18:35:00
1:55 PM,66.2,42.8,43,30.06,10.0,SSE,6.9,-,N/A,,Clear,160,2013-10-20 18:55:00
2:15 PM,64.4,41.0,42,30.05,10.0,SSE,6.9,-,N/A,,Clear,160,2013-10-20 19:15:00
2:35 PM,66.2,42.8,43,30.04,10.0,South,9.2,-,N/A,,Clear,190,2013-10-20 19:35:00
2:55 PM,66.2,41.0,40,30.04,10.0,SSW,9.2,-,N/A,,Clear,200,2013-10-20 19:55:00
3:15 PM,66.2,41.0,40,30.03,10.0,South,8.1,16.1,N/A,,Clear,190,2013-10-20 20:15:00
3:35 PM,68.0,42.8,40,30.02,10.0,South,9.2,-,N/A,,Clear,180,2013-10-20 20:35:00
3:55 PM,68.0,41.0,37,30.02,10.0,South,9.2,-,N/A,,Clear,190,2013-10-20 20:55:00
4:15 PM,66.2,41.0,40,30.02,10.0,South,6.9,-,N/A,,Clear,190,2013-10-20 21:15:00
4:35 PM,66.2,41.0,40,30.01,10.0,SSW,5.8,-,N/A,,Clear,200,2013-10-20 21:35:00
4:55 PM,66.2,41.0,40,30.01,10.0,South,9.2,-,N/A,,Clear,180,2013-10-20 21:55:00
5:15 PM,66.2,42.8,43,30.01,10.0,South,6.9,-,N/A,,Clear,180,2013-10-20 22:15:00
5:35 PM,66.2,41.0,40,30.00,10.0,South,8.1,-,N/A,,Clear,190,2013-10-20 22:35:00
5:55 PM,64.4,41.0,42,30.00,10.0,SSE,8.1,-,N/A,,Clear,160,2013-10-20 22:55:00
6:15 PM,62.6,42.8,48,30.00,10.0,SSE,5.8,-,N/A,,Clear,160,2013-10-20 23:15:00
6:35 PM,62.6,44.6,52,30.00,10.0,SSE,6.9,-,N/A,,Clear,160,2013-10-20 23:35:00
6:55 PM,60.8,42.8,52,30.00,10.0,SSE,6.9,-,N/A,,Clear,150,2013-10-20 23:55:00
7:15 PM,57.2,44.6,63,30.00,10.0,SE,6.9,-,N/A,,Clear,140,2013-10-21 00:15:00
7:35 PM,57.2,44.6,63,30.01,10.0,SSE,9.2,-,N/A,,Clear,150,2013-10-21 00:35:00
7:55 PM,55.4,44.6,67,30.01,10.0,SE,8.1,-,N/A,,Clear,140,2013-10-21 00:55:00
8:15 PM,57.2,44.6,63,30.01,10.0,SSE,8.1,-,N/A,,Clear,150,2013-10-21 01:15:00
8:35 PM,55.4,44.6,67,30.01,10.0,SE,6.9,-,N/A,,Clear,140,2013-10-21 01:35:00
8:55 PM,55.4,42.8,63,30.01,10.0,SE,6.9,-,N/A,,Clear,140,2013-10-21 01:55:00
9:15 PM,53.6,42.8,67,30.01,10.0,SE,5.8,-,N/A,,Clear,130,2013-10-21 02:15:00
9:35 PM,53.6,42.8,67,30.02,10.0,SSE,8.1,-,N/A,,Clear,150,2013-10-21 02:35:00
9:55 PM,53.6,42.8,67,30.02,10.0,SSE,5.8,-,N/A,,Clear,160,2013-10-21 02:55:00
10:15 PM,53.6,42.8,67,30.03,10.0,SSE,4.6,-,N/A,,Clear,150,2013-10-21 03:15:00
10:35 PM,53.6,42.8,67,30.03,10.0,SSE,4.6,-,N/A,,Clear,150,2013-10-21 03:35:00
10:55 PM,53.6,42.8,67,30.03,10.0,South,3.5,-,N/A,,Clear,180,2013-10-21 03:55:00
11:15 PM,53.6,42.8,67,30.03,10.0,South,3.5,-,N/A,,Clear,170,2013-10-21 04:15:00
11:35 PM,51.8,42.8,71,30.02,10.0,SSE,3.5,-,N/A,,Clear,150,2013-10-21 04:35:00
11:55 PM,51.8,42.8,71,30.02,10.0,SSE,4.6,-,N/A,,Clear,150,2013-10-21 04:55:00